Flag for Myanmar Weather past 2 weeks in Yangon, Myanmar

Now
84 °F

Broken clouds.


Feels Like: 96 °F
Forecast: 79 / 86 °F
Wind: 9 mph from Southwest

Location: Rangoon Airport

Current Time: Jul 5, 2015 at 5:01:40 PM

Latest Report: Jul 5, 2015 at 4:30 PM


Visibility: 4 mi

Pressure: 29.59 "Hg

Humidity: 84%

Dew point: 79 °F

Location of YangonLocation

Historic Weather in Yangon — Graph

°F

Yangon temperature yesterday

Maximum temperature yesterday: 90 °F (at 1:00 PM)
Minimum temperature yesterday: 77 °F (at 8:30 PM)
Average temperature yesterday: 82 °F

Past Weeks' High & Low Weather Summary

 TemperatureHumidityPressure
High90 °F (Jun 23, 1:00 PM)100% (Jun 20, 3:30 PM)29.92 "Hg (Jun 20, 3:30 PM)
Low75 °F (Jun 20, 3:30 PM)66% (Jul 1, 11:00 AM)29.62 "Hg (Jun 25, 3:30 PM)
Average80 °F91%29.76 "Hg
* Reported Jun 20 3:30 PM — Jul 5 3:30 PM, Yangon, Weather by CustomWeather, © 2015

Note: Actual official high and low records may vary slightly from our data, if they occured in-between our weather recording intervals... More about our weather records

Advertising

Yangon weather history for previous 24 hours

 ConditionsComfort  
Time TempWeatherWind HumidityBarometerVisibility
3:30 PM
Sun, Jul 5
84 °FPartly sunny.9 mph84%29.62 "Hg4 mi
3:00 PM84 °FPartly sunny.9 mph84%29.62 "Hg4 mi
2:30 PM84 °FPartly sunny.12 mph84%29.62 "Hg4 mi
2:00 PM86 °FPartly sunny.7 mph75%29.65 "Hg4 mi
1:30 PM86 °FPartly sunny.7 mph75%29.65 "Hg4 mi
1:00 PM86 °FMostly cloudy.12 mph75%29.65 "Hg4 mi
12:30 PM86 °FMostly cloudy.8 mph75%29.65 "Hg4 mi
12:00 PM86 °FMostly cloudy.8 mph75%29.65 "Hg4 mi
11:30 AM84 °FMostly cloudy.10 mph84%29.65 "Hg4 mi
11:00 AM82 °FMostly cloudy.7 mph84%29.68 "Hg4 mi
10:00 AM79 °FDrizzle. Mostly cloudy.7 mph100%29.68 "Hg4 mi
9:30 AM79 °FRain. Mostly cloudy.8 mph100%29.68 "Hg3 mi
9:00 AM77 °FRain. Mostly cloudy.7 mph100%29.68 "Hg3 mi
8:30 AM77 °FRain. Mostly cloudy.8 mph100%29.68 "Hg3 mi
8:00 AM77 °FLight rain. Mostly cloudy.7 mph100%29.68 "Hg3 mi
7:30 AM77 °FRain. Mostly cloudy.5 mph100%29.68 "Hg2 mi
7:00 AM77 °FRain. Mostly cloudy.7 mph100%29.68 "Hg2 mi
6:30 AM79 °FRain. Mostly cloudy.6 mph100%29.65 "Hg2 mi
6:00 AM79 °FMostly cloudy.6 mph100%29.65 "Hg3 mi
5:30 AM77 °FMostly cloudy.6 mph100%29.65 "Hg4 mi
5:00 AM77 °FMostly cloudy.5 mph100%29.65 "Hg4 mi
4:30 AM77 °FMostly cloudy.5 mph100%29.65 "Hg4 mi
12:00 AM79 °FPassing clouds.6 mph94%29.71 "Hg4 mi
11:30 PM
Sat, Jul 4
79 °FPassing clouds.6 mph94%29.71 "Hg4 mi
11:00 PM79 °FPassing clouds.2 mph94%29.71 "Hg4 mi
10:30 PM79 °FPassing clouds.6 mph94%29.71 "Hg4 mi
10:00 PM79 °FPassing clouds.6 mph94%29.71 "Hg4 mi
9:30 PM77 °FPassing clouds.6 mph100%29.71 "Hg4 mi
9:00 PM77 °FPassing clouds.6 mph100%29.68 "Hg4 mi
8:30 PM77 °FPassing clouds.8 mph100%29.68 "Hg4 mi
8:00 PM79 °FPassing clouds.6 mph94%29.68 "Hg4 mi
7:30 PM79 °FPassing clouds.10 mph94%29.68 "Hg4 mi
7:00 PM79 °FRain. Mostly cloudy.7 mph94%29.65 "Hg2 mi
6:30 PM82 °FPartly sunny.8 mph84%29.65 "Hg4 mi
6:00 PM82 °FPartly sunny.9 mph84%29.65 "Hg4 mi
5:30 PM82 °FPartly sunny.7 mph89%29.65 "Hg4 mi
5:00 PM82 °FPartly sunny.7 mph89%29.65 "Hg4 mi
Weather by CustomWeather, © 2015

See weather overviewHow to use our weather pages